Find Starlink 32729

NORAD ID: 62497 Int'l Des: 2025-003 Owner: SPXS Country: US Constellation: starlink operational
LEOCIRCULAR

Live-Position

3D-Globus wird geladen...

Über Starlink 32729

Beschreibung wird geladen...

Nächste Überflüge

Passes for default location (London). Set your location on the main map for personalized predictions.

Höhenverlauf

Loading altitude history...

Zweizeiliger Elementsatz

1 62497U 25003L 26123.93792185 .00018373 00000-0 67511-3 0 9991
2 62497 43.0017 336.7307 0001499 279.4440 80.6242 15.27600189 75123
Epoch: 3. Mai 2026 • Age: 22 hours

Aktueller Status

Höhe 494.9 km
Geschwindigkeit 7.62 km/s
Subsatellitenpunkt -42.39°S, 90.23°E
Startdatum 6. Jan. 2025
Alter 1.3 years
Typ internet

Technische Details

Klassifizierung Payload
Masse 730.00 kg
Trockenmasse 700.00 kg
Gesamtmasse 730.00 kg
Länge 0.30 m
Durchmesser 4.10 m
Spannweite 29.00 m
Form Box + pan
Hersteller SPXS
Bus-Typ Starlink V2M
Phasenstatus In Orbit
Besitzer/Staat SPXS/US

Most Searched